,,PA_Meas_PMT16A,,PR_Meas_QMR101_102,,RH_Meas_QMH101,,SR_Meas_QMS101,,TA_Meas_QMH101,,GenWind,,GenWind,
time,status,PA,status,PR,status,RH,status,SR,status,TA,status,DirAvg,status,SpdAvg,
2011-08-28, 00:00:04,VALID,917.766,VALID,0,VALID,97.2443,VALID,0,VALID,17.8326,VALID,37,VALID,0.738281,
2011-08-28, 00:01:04,VALID,917.785,VALID,0,VALID,97.2367,VALID,0,VALID,17.8326,VALID,130,VALID,0.876953,
2011-08-28, 00:02:04,VALID,917.754,VALID,0,VALID,97.2062,VALID,0,VALID,17.8131,VALID,130,VALID,1.00703,
2011-08-28, 00:03:04,VALID,917.776,VALID,0,VALID,97.1528,VALID,0,VALID,17.7741,VALID,130,VALID,0.766406,
2011-08-28, 00:04:04,VALID,917.779,VALID,0,VALID,97.0918,VALID,0,VALID,17.7157,VALID,130,VALID,0.942969,
2011-08-28, 00:05:04,VALID,917.777,VALID,0,VALID,97.0766,VALID,0,VALID,17.6962,VALID,110,VALID,0.944141,
2011-08-28, 00:06:04,VALID,917.763,VALID,0,VALID,97.1604,VALID,0,VALID,17.7157,VALID,110,VALID,0.769531,
2011-08-28, 00:07:04,VALID,917.788,VALID,0,VALID,97.229,VALID,0,VALID,17.7352,VALID,110,VALID,0.776563,
2011-08-28, 00:08:04,VALID,917.737,VALID,0,VALID,97.229,VALID,0,VALID,17.7352,VALID,110,VALID,0.919922,
2011-08-28, 00:09:04,VALID,917.748,VALID,0,VALID,97.1986,VALID,0,VALID,17.6962,VALID,110,VALID,0.797656,
2011-08-28, 00:10:04,VALID,917.728,VALID,0,VALID,97.1452,VALID,0,VALID,17.6975,VALID,110,VALID,0.810156,
2011-08-28, 00:11:04,VALID,917.691,VALID,0,VALID,97.2138,VALID,0,VALID,17.6767,VALID,128,VALID,0.790625,
2011-08-28, 00:12:04,VALID,917.664,VALID,0,VALID,97.2214,VALID,0,VALID,17.6975,VALID,131,VALID,0.616406,
2011-08-28, 00:13:04,VALID,917.667,VALID,0,VALID,97.229,VALID,0,VALID,17.6975,VALID,131,VALID,0.246094,
2011-08-28, 00:14:04,VALID,917.629,VALID,0,VALID,97.2748,VALID,0,VALID,17.6962,VALID,131,VALID,0.833984,
2011-08-28, 00:15:04,VALID,917.606,VALID,0,VALID,97.2977,VALID,0,VALID,17.7157,VALID,131,VALID,0.671484,
2011-08-28, 00:16:04,VALID,917.59,VALID,0,VALID,97.3281,VALID,0,VALID,17.7547,VALID,130,VALID,1.08359,
2011-08-28, 00:17:04,VALID,917.575,VALID,0,VALID,97.351,VALID,0.107441,VALID,17.8118,VALID,134,VALID,1.06211,
2011-08-28, 00:18:04,VALID,917.6,VALID,0,VALID,97.3434,VALID,0.107441,VALID,17.8326,VALID,134,VALID,0.570313,
2011-08-28, 00:19:04,VALID,917.582,VALID,0,VALID,97.3281,VALID,0,VALID,17.8118,VALID,134,VALID,0.8625,
2011-08-28, 00:20:04,VALID,917.567,VALID,0,VALID,97.2519,VALID,0.107441,VALID,17.7936,VALID,134,VALID,0.555859,
2011-08-28, 00:21:04,VALID,917.538,VALID,0,VALID,97.2672,VALID,0,VALID,17.7728,VALID,128,VALID,0.789453,
2011-08-28, 00:22:04,VALID,917.522,VALID,0,VALID,97.2138,VALID,0,VALID,17.7533,VALID,127,VALID,0.747266,
2011-08-28, 00:23:04,VALID,917.559,VALID,0,VALID,97.2214,VALID,0,VALID,17.7352,VALID,127,VALID,0.8375,
2011-08-28, 00:24:04,VALID,917.549,VALID,0,VALID,97.29,VALID,0,VALID,17.756,VALID,127,VALID,1.08281,
2011-08-28, 00:25:04,VALID,917.528,VALID,0,VALID,97.3434,VALID,0,VALID,17.7755,VALID,127,VALID,0.857813,
2011-08-28, 00:26:04,VALID,917.542,VALID,0,VALID,97.3586,VALID,0,VALID,17.7741,VALID,127,VALID,0.740625,
2011-08-28, 00:27:04,VALID,917.525,VALID,0,VALID,97.3434,VALID,0,VALID,17.8535,VALID,127,VALID,0.833203,
2011-08-28, 00:28:04,VALID,917.492,VALID,0,VALID,97.3586,VALID,0,VALID,17.8145,VALID,127,VALID,0.992578,
2011-08-28, 00:29:04,VALID,917.479,VALID,0,VALID,97.3434,VALID,0,VALID,17.7936,VALID,126,VALID,1.02266,
2011-08-28, 00:30:04,VALID,917.417,VALID,0,VALID,97.3281,VALID,0,VALID,17.7741,VALID,126,VALID,0.976172,
2011-08-28, 00:31:04,VALID,917.405,VALID,0,VALID,97.3663,VALID,0,VALID,17.7741,VALID,117,VALID,0.966797,
2011-08-28, 00:32:04,VALID,917.355,VALID,0,VALID,97.3815,VALID,0,VALID,17.8131,VALID,117,VALID,0.810547,
2011-08-28, 00:33:04,VALID,917.319,VALID,0,VALID,97.3739,VALID,0,VALID,17.7936,VALID,117,VALID,0.819531,
2011-08-28, 00:34:04,VALID,917.333,VALID,0,VALID,97.3739,VALID,0,VALID,17.7547,VALID,117,VALID,0.705078,
2011-08-28, 00:35:04,VALID,917.283,VALID,0,VALID,97.3815,VALID,0,VALID,17.7936,VALID,128,VALID,0.823047,
2011-08-28, 00:36:04,VALID,917.259,VALID,0,VALID,97.3663,VALID,0,VALID,17.7547,VALID,128,VALID,0.913672,
2011-08-28, 00:37:04,VALID,917.26,VALID,0,VALID,97.3358,VALID,0,VALID,17.6767,VALID,128,VALID,0.587109,
2011-08-28, 00:38:04,VALID,917.233,VALID,0,VALID,97.3968,VALID,0,VALID,17.7352,VALID,127,VALID,1.00391,
2011-08-28, 00:39:04,VALID,917.26,VALID,0,VALID,97.4044,VALID,0,VALID,17.795,VALID,127,VALID,1.06562,
2011-08-28, 00:40:04,VALID,917.239,VALID,0,VALID,97.4425,VALID,0,VALID,17.8326,VALID,127,VALID,0.866016,
2011-08-28, 00:41:04,VALID,917.224,VALID,0,VALID,97.4196,VALID,0,VALID,17.834,VALID,127,VALID,0.816016,
2011-08-28, 00:42:04,VALID,917.198,VALID,0,VALID,97.4577,VALID,0,VALID,17.8716,VALID,126,VALID,1.19922,
2011-08-28, 00:43:04,VALID,917.225,VALID,0,VALID,97.4577,VALID,0,VALID,17.8911,VALID,126,VALID,0.74375,
2011-08-28, 00:44:04,VALID,917.186,VALID,0,VALID,97.4577,VALID,0,VALID,17.9119,VALID,126,VALID,0.773438,
2011-08-28, 00:45:04,VALID,917.174,VALID,0,VALID,97.4806,VALID,0,VALID,17.9106,VALID,147,VALID,1.42305,
2011-08-28, 00:46:04,VALID,917.172,VALID,0,VALID,97.5035,VALID,0,VALID,17.9691,VALID,162,VALID,0.580859,
2011-08-28, 00:47:04,VALID,917.125,VALID,0,VALID,97.4882,VALID,0,VALID,18.0275,VALID,141,VALID,1.16758,
2011-08-28, 00:48:04,VALID,917.125,VALID,0,VALID,97.4959,VALID,0,VALID,18.008,VALID,150,VALID,1.10156,
2011-08-28, 00:49:04,VALID,917.089,VALID,0,VALID,97.5035,VALID,0,VALID,18.047,VALID,143,VALID,0.372656,
2011-08-28, 00:50:04,VALID,917.087,VALID,0,VALID,97.5264,VALID,0,VALID,18.047,VALID,143,VALID,0.639453,
2011-08-28, 00:51:04,VALID,917.069,VALID,0,VALID,97.5035,VALID,0,VALID,18.047,VALID,140,VALID,0.610937,
2011-08-28, 00:52:04,VALID,917.057,VALID,0,VALID,97.5111,VALID,0,VALID,18.0275,VALID,109,VALID,0.736328,
2011-08-28, 00:53:04,VALID,917.002,VALID,0,VALID,97.5187,VALID,0,VALID,18.0484,VALID,146,VALID,0.894922,
2011-08-28, 00:54:04,VALID,916.967,VALID,0,VALID,97.4959,VALID,0,VALID,18.008,VALID,104,VALID,0.672266,
2011-08-28, 00:55:04,VALID,916.983,VALID,0,VALID,97.5111,VALID,0,VALID,18.0275,VALID,140,VALID,1.12891,
2011-08-28, 00:56:04,VALID,916.969,VALID,0,VALID,97.5035,VALID,0,VALID,18.047,VALID,133,VALID,0.332812,
2011-08-28, 00:57:04,VALID,916.955,VALID,0,VALID,97.5416,VALID,0,VALID,18.047,VALID,124,VALID,1.38789,
2011-08-28, 00:58:04,VALID,916.939,VALID,0,VALID,97.5492,VALID,0,VALID,18.0665,VALID,130,VALID,1.53633,
2011-08-28, 00:59:04,VALID,916.919,VALID,0,VALID,97.5645,VALID,0,VALID,18.086,VALID,151,VALID,1.05547,
2011-08-28, 01:00:04,VALID,916.885,VALID,0,VALID,97.5492,VALID,0,VALID,18.1055,VALID,150,VALID,0.723828,
2011-08-28, 01:01:04,VALID,916.846,VALID,0,VALID,97.5645,VALID,0,VALID,18.125,VALID,126,VALID,1.0375,
2011-08-28, 01:02:04,VALID,916.832,VALID,0,VALID,97.5569,VALID,0,VALID,18.125,VALID,131,VALID,1.35859,
2011-08-28, 01:03:04,VALID,916.793,VALID,0,VALID,97.5645,VALID,0,VALID,18.1264,VALID,130,VALID,0.625,
2011-08-28, 01:04:04,VALID,916.783,VALID,0,VALID,97.5569,VALID,0,VALID,18.1055,VALID,148,VALID,0.532031,
2011-08-28, 01:05:04,VALID,916.751,VALID,0,VALID,97.5645,VALID,0,VALID,18.1069,VALID,132,VALID,1.15508,
2011-08-28, 01:06:04,VALID,916.751,VALID,0,VALID,97.5645,VALID,0,VALID,18.0874,VALID,131,VALID,1.1043,
2011-08-28, 01:07:04,VALID,916.751,VALID,0,VALID,97.5721,VALID,0,VALID,18.0484,VALID,131,VALID,0.732031,
2011-08-28, 01:08:04,VALID,916.752,VALID,0,VALID,97.5569,VALID,0,VALID,18.0275,VALID,132,VALID,1.06875,
2011-08-28, 01:09:04,VALID,916.739,VALID,0,VALID,97.5797,VALID,0,VALID,18.0484,VALID,132,VALID,0.596875,
2011-08-28, 01:10:04,VALID,916.737,VALID,0,VALID,97.5569,VALID,0,VALID,18.008,VALID,132,VALID,0.678125,
2011-08-28, 01:11:04,VALID,916.722,VALID,0,VALID,97.5873,VALID,0,VALID,18.008,VALID,132,VALID,0.804297,
2011-08-28, 01:12:04,VALID,916.742,VALID,0,VALID,97.5645,VALID,0,VALID,17.9691,VALID,132,VALID,0.629687,
2011-08-28, 01:13:04,VALID,916.729,VALID,0,VALID,97.5797,VALID,0,VALID,17.9886,VALID,132,VALID,0.273438,
2011-08-28, 01:14:04,VALID,916.726,VALID,0,VALID,97.5873,VALID,0,VALID,17.9314,VALID,132,VALID,0.628125,
2011-08-28, 01:15:04,VALID,916.69,VALID,0,VALID,97.5721,VALID,0,VALID,17.8716,VALID,132,VALID,0.61875,
2011-08-28, 01:16:04,VALID,916.684,VALID,0,VALID,97.5797,VALID,0,VALID,17.8326,VALID,132,VALID,0.66875,
2011-08-28, 01:17:04,VALID,916.688,VALID,0,VALID,97.5873,VALID,0,VALID,17.8131,VALID,132,VALID,0.501953,
2011-08-28, 01:18:04,VALID,916.669,VALID,0,VALID,97.5797,VALID,0,VALID,17.8145,VALID,132,VALID,0.521875,
2011-08-28, 01:19:04,VALID,916.664,VALID,0,VALID,97.5645,VALID,0,VALID,17.7741,VALID,132,VALID,0.0734375,
2011-08-28, 01:20:04,VALID,916.628,VALID,0,VALID,97.5873,VALID,0,VALID,17.7741,VALID,132,VALID,0.489062,
2011-08-28, 01:21:04,VALID,916.646,VALID,0,VALID,97.6026,VALID,0,VALID,17.7352,VALID,140,VALID,1.01367,
2011-08-28, 01:22:04,VALID,916.629,VALID,0,VALID,97.5873,VALID,0,VALID,17.7365,VALID,133,VALID,0.210547,
2011-08-28, 01:23:04,VALID,916.633,VALID,0,VALID,97.6026,VALID,0,VALID,17.6962,VALID,133,VALID,0.667578,
2011-08-28, 01:24:04,VALID,916.634,VALID,0,VALID,97.6102,VALID,0,VALID,17.6767,VALID,133,VALID,0.491406,
2011-08-28, 01:25:04,VALID,916.606,VALID,0,VALID,97.595,VALID,0,VALID,17.6377,VALID,133,VALID,0.501953,
2011-08-28, 01:26:04,VALID,916.613,VALID,0,VALID,97.6026,VALID,0,VALID,17.6182,VALID,133,VALID,0.666016,
2011-08-28, 01:27:04,VALID,916.615,VALID,0,VALID,97.595,VALID,0,VALID,17.6196,VALID,133,VALID,0.668359,
2011-08-28, 01:28:04,VALID,916.604,VALID,0,VALID,97.5797,VALID,0,VALID,17.5779,VALID,133,VALID,0.270312,
2011-08-28, 01:29:04,VALID,916.613,VALID,0,VALID,97.6026,VALID,0,VALID,17.5792,VALID,133,VALID,0.302344,
2011-08-28, 01:30:04,VALID,916.605,VALID,0,VALID,97.595,VALID,0,VALID,17.5987,VALID,133,VALID,0.416797,
2011-08-28, 01:31:04,VALID,916.595,VALID,0,VALID,97.6102,VALID,0,VALID,17.5987,VALID,133,VALID,0.344141,
2011-08-28, 01:32:04,VALID,916.615,VALID,0,VALID,97.6102,VALID,0,VALID,17.5987,VALID,133,VALID,0.197656,
2011-08-28, 01:33:04,VALID,916.59,VALID,0,VALID,97.6102,VALID,0,VALID,17.5792,VALID,133,VALID,0.00117188,
2011-08-28, 01:34:04,VALID,916.62,VALID,0,VALID,97.6255,VALID,0,VALID,17.5403,VALID,133,VALID,0.148828,
2011-08-28, 01:35:04,VALID,916.58,VALID,0,VALID,97.6026,VALID,0,VALID,17.5013,VALID,133,VALID,0.399219,
2011-08-28, 01:36:04,VALID,916.551,VALID,0,VALID,97.6102,VALID,0,VALID,17.4818,VALID,133,VALID,0.675,
2011-08-28, 01:37:04,VALID,916.554,VALID,0,VALID,97.5873,VALID,0,VALID,17.4831,VALID,133,VALID,0.476172,
2011-08-28, 01:38:04,VALID,916.533,VALID,0,VALID,97.6102,VALID,0,VALID,17.4428,VALID,133,VALID,0.721484,
2011-08-28, 01:39:04,VALID,916.576,VALID,0,VALID,97.6178,VALID,0,VALID,17.4233,VALID,133,VALID,0.647656,
2011-08-28, 01:40:04,VALID,916.541,VALID,0,VALID,97.5797,VALID,0,VALID,17.3844,VALID,133,VALID,0.550391,
2011-08-28, 01:41:04,VALID,916.54,VALID,0,VALID,97.595,VALID,0,VALID,17.3649,VALID,133,VALID,0.653125,
2011-08-28, 01:42:04,VALID,916.564,VALID,0,VALID,97.5873,VALID,0,VALID,17.3259,VALID,133,VALID,0.448828,
2011-08-28, 01:43:04,VALID,916.577,VALID,0,VALID,97.5645,VALID,0,VALID,17.2882,VALID,133,VALID,0.374609,
2011-08-28, 01:44:04,VALID,916.524,VALID,0,VALID,97.5416,VALID,0,VALID,17.209,VALID,133,VALID,0.557031,
2011-08-28, 01:45:04,VALID,916.52,VALID,0,VALID,97.5264,VALID,0,VALID,17.1505,VALID,133,VALID,0.5,
2011-08-28, 01:46:04,VALID,916.466,VALID,0,VALID,97.5035,VALID,0,VALID,17.1323,VALID,133,VALID,0.607813,
2011-08-28, 01:47:04,VALID,916.486,VALID,0,VALID,97.5264,VALID,0,VALID,17.1115,VALID,133,VALID,0.494531,
2011-08-28, 01:48:04,VALID,916.45,VALID,0,VALID,97.534,VALID,0,VALID,17.1349,VALID,133,VALID,0.585156,
2011-08-28, 01:49:04,VALID,916.446,VALID,0,VALID,97.5492,VALID,0,VALID,17.1128,VALID,133,VALID,0.608203,
2011-08-28, 01:50:04,VALID,916.457,VALID,0,VALID,97.5797,VALID,0,VALID,17.1323,VALID,133,VALID,0.688672,
2011-08-28, 01:51:04,VALID,916.421,VALID,0,VALID,97.6026,VALID,0,VALID,17.1505,VALID,133,VALID,0.746484,
2011-08-28, 01:52:04,VALID,916.448,VALID,0,VALID,97.6178,VALID,0,VALID,17.17,VALID,133,VALID,0.925391,
2011-08-28, 01:53:04,VALID,916.424,VALID,0,VALID,97.6255,VALID,0,VALID,17.1895,VALID,133,VALID,0.977344,
2011-08-28, 01:54:04,VALID,916.39,VALID,0,VALID,97.6255,VALID,0,VALID,17.209,VALID,134,VALID,1.21836,
2011-08-28, 01:55:04,VALID,916.339,VALID,0,VALID,97.6178,VALID,0,VALID,17.1882,VALID,134,VALID,1.38867,
2011-08-28, 01:56:04,VALID,916.325,VALID,0,VALID,97.6178,VALID,0,VALID,17.2285,VALID,133,VALID,1.2293,
2011-08-28, 01:57:04,VALID,916.305,VALID,0,VALID,97.5721,VALID,0,VALID,17.209,VALID,133,VALID,0.846875,
2011-08-28, 01:58:04,VALID,916.305,VALID,0,VALID,97.5721,VALID,0,VALID,17.2479,VALID,133,VALID,0.820313,
2011-08-28, 01:59:04,VALID,916.293,VALID,0,VALID,97.5645,VALID,0,VALID,17.2077,VALID,133,VALID,0.803125,
2011-08-28, 02:00:04,VALID,916.292,VALID,0,VALID,97.5416,VALID,0,VALID,17.2271,VALID,133,VALID,0.592969,
2011-08-28, 02:01:04,VALID,916.272,VALID,0,VALID,97.5264,VALID,0,VALID,17.2271,VALID,150,VALID,0.690625,
2011-08-28, 02:02:04,VALID,916.271,VALID,0,VALID,97.5187,VALID,0,VALID,17.2271,VALID,146,VALID,1.04258,
2011-08-28, 02:03:04,VALID,916.24,VALID,0,VALID,97.4959,VALID,0,VALID,17.2077,VALID,139,VALID,1.04023,
2011-08-28, 02:04:04,VALID,916.266,VALID,0,VALID,97.412,VALID,0,VALID,17.2285,VALID,139,VALID,0.699219,
2011-08-28, 02:05:04,VALID,916.248,VALID,0,VALID,97.2977,VALID,0,VALID,17.209,VALID,139,VALID,0.716797,
2011-08-28, 02:06:04,VALID,916.266,VALID,0,VALID,97.3053,VALID,0,VALID,17.1895,VALID,139,VALID,1.075,
2011-08-28, 02:07:04,VALID,916.26,VALID,0,VALID,97.2748,VALID,0,VALID,17.209,VALID,139,VALID,0.466797,
2011-08-28, 02:08:04,VALID,916.269,VALID,0,VALID,97.2748,VALID,0,VALID,17.2285,VALID,139,VALID,0.998438,
2011-08-28, 02:09:04,VALID,916.225,VALID,0,VALID,97.3205,VALID,0,VALID,17.2479,VALID,139,VALID,1.33672,
2011-08-28, 02:10:04,VALID,916.219,VALID,0,VALID,97.2595,VALID,0,VALID,17.2466,VALID,139,VALID,1.08633,
2011-08-28, 02:11:04,VALID,916.214,VALID,0,VALID,97.2214,VALID,0,VALID,17.2674,VALID,139,VALID,0.784766,
2011-08-28, 02:12:04,VALID,916.236,VALID,0,VALID,97.1604,VALID,0,VALID,17.2466,VALID,139,VALID,1.23516,
2011-08-28, 02:13:04,VALID,916.224,VALID,0,VALID,97.0918,VALID,0,VALID,17.2479,VALID,139,VALID,0.821875,
2011-08-28, 02:14:04,VALID,916.213,VALID,0,VALID,97.069,VALID,0,VALID,17.2674,VALID,139,VALID,1.06914,
2011-08-28, 02:15:04,VALID,916.213,VALID,0,VALID,96.9927,VALID,0,VALID,17.2479,VALID,139,VALID,1.10586,
2011-08-28, 02:16:04,VALID,916.165,VALID,0,VALID,96.9546,VALID,0,VALID,17.2479,VALID,139,VALID,1.03437,
2011-08-28, 02:17:04,VALID,916.2,VALID,0,VALID,96.9622,VALID,0,VALID,17.2882,VALID,139,VALID,1.13633,
2011-08-28, 02:18:04,VALID,916.16,VALID,0,VALID,96.9012,VALID,0,VALID,17.2674,VALID,139,VALID,1.13906,
2011-08-28, 02:19:04,VALID,916.15,VALID,0,VALID,96.8631,VALID,0,VALID,17.2674,VALID,139,VALID,0.929688,
2011-08-28, 02:20:04,VALID,916.136,VALID,0,VALID,96.8174,VALID,0,VALID,17.2674,VALID,139,VALID,0.821484,
2011-08-28, 02:21:04,VALID,916.145,VALID,0,VALID,96.7183,VALID,0,VALID,17.209,VALID,139,VALID,0.972656,
2011-08-28, 02:22:04,VALID,916.12,VALID,0,VALID,96.7793,VALID,0,VALID,17.209,VALID,139,VALID,0.890625,
2011-08-28, 02:23:04,VALID,916.107,VALID,0,VALID,96.6878,VALID,0,VALID,17.17,VALID,139,VALID,0.698828,
2011-08-28, 02:24:04,VALID,916.103,VALID,0,VALID,96.6878,VALID,0,VALID,17.1297,VALID,139,VALID,0.375391,
2011-08-28, 02:25:04,VALID,916.099,VALID,0,VALID,96.7183,VALID,0,VALID,17.1115,VALID,139,VALID,0.544141,
2011-08-28, 02:26:04,VALID,916.117,VALID,0,VALID,96.7183,VALID,0,VALID,17.092,VALID,139,VALID,0.726172,
2011-08-28, 02:27:04,VALID,916.09,VALID,0,VALID,96.7488,VALID,0,VALID,17.0726,VALID,139,VALID,0.921484,
2011-08-28, 02:28:04,VALID,916.095,VALID,0,VALID,96.8098,VALID,0,VALID,17.0726,VALID,139,VALID,0.897266,
2011-08-28, 02:29:04,VALID,916.074,VALID,0,VALID,96.8479,VALID,0,VALID,17.0531,VALID,139,VALID,0.65625,
2011-08-28, 02:30:04,VALID,916.055,VALID,0,VALID,96.9622,VALID,0,VALID,17.0726,VALID,139,VALID,0.814453,
2011-08-28, 02:31:04,VALID,916.036,VALID,0,VALID,96.9927,VALID,0,VALID,17.0726,VALID,139,VALID,0.548437,
2011-08-28, 02:32:04,VALID,916.054,VALID,0,VALID,97.0232,VALID,0,VALID,17.0726,VALID,139,VALID,0.638281,
2011-08-28, 02:33:04,VALID,916.06,VALID,0,VALID,97.1071,VALID,0,VALID,17.092,VALID,139,VALID,1.02227,
2011-08-28, 02:34:04,VALID,916.078,VALID,0,VALID,97.1681,VALID,0,VALID,17.131,VALID,139,VALID,0.748438,
2011-08-28, 02:35:04,VALID,916.064,VALID,0,VALID,97.229,VALID,0,VALID,17.17,VALID,139,VALID,1.20313,
2011-08-28, 02:36:04,VALID,916.086,VALID,0,VALID,97.2214,VALID,0,VALID,17.1895,VALID,170,VALID,0.841406,
2011-08-28, 02:37:04,VALID,916.028,VALID,0,VALID,97.2443,VALID,0,VALID,17.209,VALID,137,VALID,0.896875,
2011-08-28, 02:38:04,VALID,916.007,VALID,0,VALID,97.2443,VALID,0,VALID,17.1895,VALID,145,VALID,0.911719,
2011-08-28, 02:39:04,VALID,915.99,VALID,0,VALID,97.2595,VALID,0,VALID,17.1908,VALID,145,VALID,0.517578,
2011-08-28, 02:40:04,VALID,915.959,VALID,0,VALID,97.2595,VALID,0,VALID,17.17,VALID,155,VALID,0.998047,
2011-08-28, 02:41:04,VALID,915.946,VALID,0,VALID,97.229,VALID,0,VALID,17.1505,VALID,155,VALID,0.553516,
2011-08-28, 02:42:04,VALID,915.941,VALID,0,VALID,97.1986,VALID,0,VALID,17.1128,VALID,144,VALID,0.511719,
2011-08-28, 02:43:04,VALID,915.904,VALID,0,VALID,97.229,VALID,0,VALID,17.0933,VALID,144,VALID,0.286719,
2011-08-28, 02:44:04,VALID,915.875,VALID,0,VALID,97.2672,VALID,0,VALID,17.0726,VALID,144,VALID,0.89375,
2011-08-28, 02:45:04,VALID,915.873,VALID,0,VALID,97.2748,VALID,0,VALID,17.0531,VALID,144,VALID,0.848047,
2011-08-28, 02:46:04,VALID,915.879,VALID,0,VALID,97.2824,VALID,0,VALID,17.0739,VALID,148,VALID,0.556641,
2011-08-28, 02:47:04,VALID,915.871,VALID,0,VALID,97.3129,VALID,0,VALID,17.0739,VALID,141,VALID,1.21914,
2011-08-28, 02:48:04,VALID,915.88,VALID,0,VALID,97.2824,VALID,0,VALID,17.0336,VALID,144,VALID,0.850391,
2011-08-28, 02:49:04,VALID,915.82,VALID,0,VALID,97.3281,VALID,0,VALID,17.0726,VALID,152,VALID,0.859375,
2011-08-28, 02:50:04,VALID,915.8,VALID,0,VALID,97.351,VALID,0,VALID,17.1128,VALID,150,VALID,0.803516,
2011-08-28, 02:51:04,VALID,915.807,VALID,0,VALID,97.3281,VALID,0,VALID,17.1323,VALID,146,VALID,0.654688,
2011-08-28, 02:52:04,VALID,915.78,VALID,0,VALID,97.3205,VALID,0,VALID,17.092,VALID,146,VALID,0.601172,
2011-08-28, 02:53:04,VALID,915.771,VALID,0,VALID,97.3129,VALID,0,VALID,17.1128,VALID,146,VALID,1.10508,
2011-08-28, 02:54:04,VALID,915.774,VALID,0,VALID,97.3053,VALID,0,VALID,17.1115,VALID,149,VALID,0.855078,
2011-08-28, 02:55:04,VALID,915.78,VALID,0,VALID,97.3053,VALID,0.107441,VALID,17.131,VALID,162,VALID,0.843359,
2011-08-28, 02:56:04,VALID,915.761,VALID,0,VALID,97.3205,VALID,0.107441,VALID,17.1102,VALID,161,VALID,0.402344,
2011-08-28, 02:57:04,VALID,915.77,VALID,0,VALID,97.3129,VALID,0,VALID,17.1115,VALID,154,VALID,1.12812,
2011-08-28, 02:58:04,VALID,915.761,VALID,0,VALID,97.2977,VALID,0,VALID,17.0907,VALID,149,VALID,1.04688,
2011-08-28, 02:59:04,VALID,915.765,VALID,0,VALID,97.2977,VALID,0,VALID,17.0713,VALID,149,VALID,0.382422,
2011-08-28, 03:00:04,VALID,915.74,VALID,0,VALID,97.3053,VALID,0.107441,VALID,17.0713,VALID,149,VALID,0.497266,
2011-08-28, 03:01:04,VALID,915.726,VALID,0,VALID,97.2977,VALID,0.107441,VALID,17.0726,VALID,149,VALID,0.567578,
2011-08-28, 03:02:04,VALID,915.748,VALID,0,VALID,97.3053,VALID,0,VALID,17.0323,VALID,149,VALID,0.764844,
2011-08-28, 03:03:04,VALID,915.754,VALID,0,VALID,97.3129,VALID,0.107441,VALID,17.0323,VALID,149,VALID,0.815625,
2011-08-28, 03:04:04,VALID,915.765,VALID,0,VALID,97.2977,VALID,0,VALID,17.0336,VALID,149,VALID,0.512109,
2011-08-28, 03:05:04,VALID,915.751,VALID,0,VALID,97.2519,VALID,0,VALID,16.9933,VALID,149,VALID,0.439063,
2011-08-28, 03:06:04,VALID,915.747,VALID,0,VALID,97.2824,VALID,0,VALID,17.0141,VALID,149,VALID,0.282422,
2011-08-28, 03:07:04,VALID,915.706,VALID,0,VALID,97.3281,VALID,0.107441,VALID,17.0336,VALID,149,VALID,0.739844,
2011-08-28, 03:08:04,VALID,915.735,VALID,0,VALID,97.2977,VALID,0.107441,VALID,17.0141,VALID,149,VALID,0.488281,
2011-08-28, 03:09:04,VALID,915.72,VALID,0,VALID,97.3129,VALID,0.107441,VALID,17.0141,VALID,149,VALID,0.65625,
2011-08-28, 03:10:04,VALID,915.705,VALID,0,VALID,97.29,VALID,0,VALID,16.9946,VALID,149,VALID,0.291406,
2011-08-28, 03:11:04,VALID,915.703,VALID,0,VALID,97.2977,VALID,0.107441,VALID,16.9946,VALID,149,VALID,0.294141,
2011-08-28, 03:12:04,VALID,915.676,VALID,0,VALID,97.2824,VALID,0,VALID,17.0141,VALID,180,VALID,0.746484,
2011-08-28, 03:13:04,VALID,915.671,VALID,0,VALID,97.3129,VALID,0,VALID,17.0141,VALID,150,VALID,0.847656,
2011-08-28, 03:14:04,VALID,915.671,VALID,0,VALID,97.2977,VALID,0.107441,VALID,17.0141,VALID,158,VALID,0.616797,
2011-08-28, 03:15:04,VALID,915.673,VALID,0,VALID,97.2595,VALID,0,VALID,16.9946,VALID,158,VALID,0.341797,
2011-08-28, 03:16:04,VALID,915.627,VALID,0,VALID,97.2138,VALID,0,VALID,16.9362,VALID,158,VALID,0.679297,
2011-08-28, 03:17:04,VALID,915.598,VALID,0,VALID,97.2367,VALID,0,VALID,16.9167,VALID,153,VALID,0.669531,
2011-08-28, 03:18:04,VALID,915.589,VALID,0,VALID,97.2214,VALID,0.107441,VALID,16.9167,VALID,146,VALID,0.975,
2011-08-28, 03:19:04,VALID,915.558,VALID,0,VALID,97.2367,VALID,0,VALID,16.8764,VALID,146,VALID,0.667188,
2011-08-28, 03:20:04,VALID,915.551,VALID,0,VALID,97.2367,VALID,0,VALID,16.818,VALID,146,VALID,0.423438,
2011-08-28, 03:21:04,VALID,915.531,VALID,0,VALID,97.2443,VALID,0,VALID,16.8387,VALID,146,VALID,0.704297,
2011-08-28, 03:22:04,VALID,915.524,VALID,0,VALID,97.29,VALID,0,VALID,16.818,VALID,146,VALID,0.877734,
2011-08-28, 03:23:04,VALID,915.501,VALID,0,VALID,97.2595,VALID,0,VALID,16.8387,VALID,146,VALID,0.632422,
2011-08-28, 03:24:04,VALID,915.518,VALID,0,VALID,97.2367,VALID,0.107441,VALID,16.7998,VALID,146,VALID,0.794141,
2011-08-28, 03:25:04,VALID,915.512,VALID,0,VALID,97.2214,VALID,0,VALID,16.7803,VALID,146,VALID,0.903125,
2011-08-28, 03:26:04,VALID,915.543,VALID,0,VALID,97.2672,VALID,0.107441,VALID,16.7595,VALID,146,VALID,1.06523,
2011-08-28, 03:27:04,VALID,915.54,VALID,0,VALID,97.1986,VALID,0.107441,VALID,16.74,VALID,146,VALID,0.843359,
2011-08-28, 03:28:04,VALID,915.544,VALID,0,VALID,97.1147,VALID,0.107441,VALID,16.7023,VALID,146,VALID,1.08477,
2011-08-28, 03:29:04,VALID,915.544,VALID,0,VALID,97.1757,VALID,0,VALID,16.6621,VALID,146,VALID,1.0125,
2011-08-28, 03:30:04,VALID,915.579,VALID,0,VALID,97.2367,VALID,0,VALID,16.6816,VALID,146,VALID,0.983203,
2011-08-28, 03:31:04,VALID,915.574,VALID,0,VALID,97.3053,VALID,0,VALID,16.7413,VALID,146,VALID,1.15742,
2011-08-28, 03:32:04,VALID,915.575,VALID,0,VALID,97.3739,VALID,0,VALID,16.7803,VALID,146,VALID,1.35859,
2011-08-28, 03:33:04,VALID,915.567,VALID,0,VALID,97.3281,VALID,0,VALID,16.8192,VALID,146,VALID,0.952734,
2011-08-28, 03:34:04,VALID,915.575,VALID,0,VALID,97.2519,VALID,0,VALID,16.8192,VALID,146,VALID,0.851953,
2011-08-28, 03:35:04,VALID,915.563,VALID,0,VALID,97.2062,VALID,0.107441,VALID,16.8205,VALID,146,VALID,0.338672,
2011-08-28, 03:36:04,VALID,915.567,VALID,0,VALID,97.1757,VALID,0.107441,VALID,16.7998,VALID,146,VALID,0.553125,
2011-08-28, 03:37:04,VALID,915.563,VALID,0,VALID,97.1376,VALID,0.107441,VALID,16.7803,VALID,146,VALID,0.93125,
2011-08-28, 03:38:04,VALID,915.557,VALID,0,VALID,97.1681,VALID,0,VALID,16.7595,VALID,146,VALID,0.779297,
2011-08-28, 03:39:04,VALID,915.552,VALID,0,VALID,97.1909,VALID,0.107441,VALID,16.7985,VALID,146,VALID,0.510938,
2011-08-28, 03:40:04,VALID,915.548,VALID,0,VALID,97.1909,VALID,0.107441,VALID,16.8387,VALID,146,VALID,0.6375,
2011-08-28, 03:41:04,VALID,915.575,VALID,0,VALID,97.1528,VALID,0,VALID,16.8192,VALID,146,VALID,0.282031,
2011-08-28, 03:42:04,VALID,915.541,VALID,0,VALID,97.0537,VALID,0,VALID,16.8387,VALID,146,VALID,0.334375,
2011-08-28, 03:43:04,VALID,915.542,VALID,0,VALID,96.9012,VALID,0.107441,VALID,16.7595,VALID,146,VALID,0.560547,